Lawrence, KS

7:01 PM CST on December 02, 2016 (GMT -0600)
Lawrence Municipal

Weather History for KLWC - October, 2013

Change the Weather History Date:

Tuesday, October 1, 2013

  Actual Average Record
Temperature  
Mean Temperature 69 °F 62 °F  
Max Temperature 86 °F 75 °F 93 °F (2002)
Min Temperature 52 °F 49 °F 34 °F (2003)
Degree Days  
Heating Degree Days 0 5  
Month to date heating degree days 0 5  
Since 1 July heating degree days 23 68  
Cooling Degree Days 4 2  
Month to date cooling degree days 4 2  
Year to date cooling degree days 1460 1346  
Growing Degree Days 18 (Base 50)    
Moisture  
Dew Point 59 °F    
Average Humidity 72    
Maximum Humidity 93    
Minimum Humidity 51    
Precipitation  
Precipitation 0.00 in 0.13 in 0.89 in (2005)
Month to date precipitation 0.00 0.13  
Year to date precipitation 23.62 32.15  
Sea Level Pressure  
Sea Level Pressure 29.91 in    
Wind  
Wind Speed 5 mph (SE)    
Max Wind Speed 13 mph    
Max Gust Speed 18 mph    
Visibility 8 miles    
Events      
T = Trace of Precipitation, MM = Missing Value Source: NWS Daily Summary

Daily Weather History Graph

Daily Weather History Graph

Search for Another Location

Airport or City:

Trip Planner

Search our weather history database for the weather conditions in past years. The results will help you decide how hot, cold, wet, or windy it might be!

Date:

Astronomy

Oct. 01, 2013 Rise Set
Actual Time 7:17 AM CDT 7:03 PM CDT
Civil Twilight 6:50 AM CDT 7:29 PM CDT
Nautical Twilight 6:19 AM CDT 8:00 PM CDT
Astronomical Twilight 5:48 AM CDT 8:31 PM CDT
Moon 3:53 AM CDT (10/1) 5:06 PM CDT (10/1)
Length of Visible Light 12h 39m
Length of Day
11h 46m
Waning Crescent, 12% of the Moon is Illuminated
Oct 1
Waning Crescent
Oct 4
New
Oct 11
First Quarter
Oct 18
Full
Oct 26
Last Quarter

Hourly Weather History & Observations

Time (CDT) Temp. Heat Index Dew Point Humidity Pressure Visibility Wind Dir Wind Speed Gust Speed Precip Events Conditions
12:52 AM 55.9 °F - 52.0 °F 87% 29.84 in 10.0 mi East 4.6 mph - N/A   Clear
1:52 AM 54.0 °F - 51.1 °F 90% 29.85 in 10.0 mi East 3.5 mph - N/A   Clear
2:52 AM 53.1 °F - 48.9 °F 86% 29.86 in 10.0 mi Calm Calm - N/A   Clear
3:52 AM 54.0 °F - 50.0 °F 86% 29.85 in 10.0 mi Calm Calm - N/A   Clear
4:52 AM 54.0 °F - 51.1 °F 90% 29.86 in 9.0 mi East 3.5 mph - N/A   Clear
5:52 AM 55.9 °F - 52.0 °F 87% 29.87 in 10.0 mi ESE 4.6 mph - N/A   Clear
6:52 AM 59.0 °F - 55.0 °F 87% 29.89 in 8.0 mi East 4.6 mph - N/A   Clear
7:52 AM 60.1 °F - 55.9 °F 86% 29.91 in 2.5 mi ESE 5.8 mph - N/A   Clear
8:07 AM 62.1 °F - 57.9 °F 86% 29.93 in 1.8 mi SE 4.6 mph - N/A   Partly Cloudy
8:16 AM 63.0 °F - 60.1 °F 90% 29.93 in 1.8 mi SE 4.6 mph - N/A   Mostly Cloudy
8:31 AM 64.0 °F - 61.0 °F 90% 29.94 in 2.0 mi Calm Calm - N/A   Overcast
8:52 AM 66.0 °F - 63.0 °F 90% 29.94 in 4.0 mi South 8.1 mph - N/A   Overcast
9:41 AM 68.0 °F - 62.1 °F 81% 29.97 in 7.0 mi SSE 4.6 mph - N/A   Scattered Clouds
9:52 AM 69.1 °F - 62.1 °F 78% 29.96 in 8.0 mi SSE 6.9 mph - N/A   Partly Cloudy
10:52 AM 73.9 °F - 62.1 °F 66% 29.96 in 10.0 mi South 9.2 mph - N/A   Clear
11:52 AM 78.1 °F - 64.0 °F 62% 29.96 in 10.0 mi SSW 10.4 mph - N/A   Clear
12:52 PM 80.1 °F 81.9 °F 64.9 °F 60% 29.94 in 10.0 mi South 12.7 mph - N/A   Clear
1:52 PM 82.0 °F 83.8 °F 64.9 °F 56% 29.93 in 10.0 mi South 6.9 mph - N/A   Clear
2:52 PM 84.0 °F 85.8 °F 64.9 °F 53% 29.92 in 10.0 mi SSW 9.2 mph - N/A   Partly Cloudy
3:52 PM 84.9 °F 86.6 °F 64.9 °F 51% 29.91 in 10.0 mi SW 9.2 mph - N/A   Partly Cloudy
4:52 PM 84.9 °F 86.1 °F 64.0 °F 49% 29.91 in 10.0 mi SSE 8.1 mph - N/A   Clear
5:52 PM 82.9 °F 84.4 °F 64.0 °F 53% 29.90 in 10.0 mi SSE 10.4 mph - N/A   Clear
6:52 PM 78.1 °F - 64.0 °F 62% 29.91 in 7.0 mi SSE 3.5 mph - N/A   Clear
7:52 PM 71.1 °F - 64.0 °F 78% 29.92 in 7.0 mi East 4.6 mph - N/A   Clear
8:52 PM 66.9 °F - 62.1 °F 84% 29.93 in 6.0 mi Calm Calm - N/A   Haze
9:52 PM 64.9 °F - 61.0 °F 87% 29.94 in 5.0 mi Calm Calm - N/A   Clear
10:52 PM 63.0 °F - 59.0 °F 87% 29.94 in 5.0 mi East 4.6 mph - N/A   Clear
11:52 PM 62.1 °F - 59.0 °F 90% 29.95 in 5.0 mi East 3.5 mph - N/A   Clear